Location: Sternwarte auf dem Internationalen Platz Vogelsang IP
(50.5721°N, 6.4398°E)
Time: 11:57:56
(UTC+01:00)

ACS3 Solar Sail - Pass Details

Date: 14 November 2025
Orbit: 888 x 1003 km, 97.3° (Epoch: 07 December)

Event Time Altitude Azimuth Distance (km) Brightness Sun altitude
Rises 06:23:35 0° 1° (N) 3,543 4.6 -13.3°
Reaches altitude 10° 06:27:31 10° 334° (NNW) 2,619 3.7 -12.7°
Enters shadow 06:29:47 13° 311° (NW) 2,448 3.4 -12.3°
